Lid_Strength_Index
3 3 2 2 2 2 2 2 3 3 2 2 2 2 2 2 2 5 8 4 3 2 2 5 5 5 4 4 4 5 10 12 10 10 9 6 7 5 4 6 5 5 5 4 2
3 3 3 2 2 2 2 2 3 2 2 2 2 3 3 3 5 7 3 2 2 1 6 7 7 6 7 6 6 7 10 10 7 7 8 7 7 7 7 7 8 6 4 3 3
3 3 3 3 2 2 3 3 2 2 2 2 2 3 4 4 7 8 2 2 2 2 5 6 6 6 8 7 8 8 10 8 7 6 6 6 6 7 9 10 7 8 6 5 4
3 3 3 3 3 3 3 3 2 2 2 2 2 3 3 5 12 6 1 2 1 3 5 6 6 8 9 10 8 10 9 9 7 7 7 7 6 8 9 7 6 7 8 7 8
4 3 3 3 3 3 3 3 3 2 2 2 1 2 6 8 9 5 2 3 4 4 6 7 9 9 11 10 9 10 10 8 7 7 7 6 7 8 9 6 6 7 8 10 10
5 4 3 4 3 3 3 3 3 3 2 2 2 2 6 11 5 4 5 4 5 5 7 7 8 7 9 9 10 9 9 8 8 8 7 7 7 7 8 7 6 7 9 10 10
5 4 4 4 3 3 3 3 4 3 3 3 2 5 8 10 5 4 5 5 5 6 7 6 6 7 8 9 8 9 10 9 9 8 8 7 9 9 7 7 8 8 8 9 10
5 5 4 4 3 3 4 3 3 4 3 3 3 5 10 5 5 5 5 5 4 5 5 5 5 6 7 7 9 10 10 12 9 9 8 8 12 9 7 7 8 9 10 9 9
5 5 4 4 3 4 4 4 3 4 3 3 5 6 10 4 7 6 5 7 6 5 5 5 5 7 7 10 12 11 15 12 11 9 9 10 11 9 7 8 9 9 10 9 10
5 5 4 4 4 4 5 5 4 4 4 6 6 8 8 10 7 6 5 6 7 7 6 6 8 10 10 12 17 15 14 11 13 10 10 11 12 9 8 8 9 10 10 10 10
5 5 4 4 4 4 4 6 7 8 8 10 10 9 9 7 6 7 6 7 6 8 11 9 12 14 12 11 11 12 12 12 11 10 11 12 12 11 9 10 10 11 11 11 10
6 5 5 5 5 4 4 8 8 7 13 9 9 9 8 8 10 9 6 9 9 12 10 11 14 11 10 10 11 11 13 13 10 9 11 12 12 10 10 10 10 11 11 11 10
6 5 5 5 5 5 7 8 5 6 11 12 10 10 10 9 11 11 8 9 11 12 12 14 12 9 10 11 12 12 14 13 13 11 11 12 13 11 10 9 9 9 11 11 11
6 6 6 5 7 7 8 6 5 5 13 14 12 11 9 9 11 8 9 9 11 13 12 12 9 10 11 12 12 14 12 12 11 14 17 13 19 12 11 10 10 10 11 12 11
6 6 6 6 8 8 8 6 5 7 17 14 13 9 9 11 11 10 8 9 13 13 12 14 12 12 12 12 11 13 11 12 12 13 15 15 18 14 11 12 11 11 11 11 11
6 7 6 7 7 7 6 6 8 14 18 17 13 13 12 12 11 10 10 10 11 12 12 13 10 11 12 10 10 10 12 12 13 14 20 16 17 16 13 12 11 11 11 11 11
7 7 7 7 9 7 7 9 15 16 16 17 16 13 14 15 13 12 13 15 16 19 18 13 13 11 10 12 10 12 15 19 20 21 21 15 18 16 12 11 11 11 12 11 11
7 7 7 8 7 7 9 12 17 16 17 15 15 15 16 15 14 13 14 16 14 16 18 19 19 14 11 13 14 13 14 21 25 22 20 16 19 16 11 11 10 10 11 11 11
7 7 8 8 8 9 10 16 15 16 16 16 16 18 17 15 15 14 15 15 15 15 19 19 18 13 12 11 11 14 17 13 16 19 21 17 15 13 12 12 11 11 11 12 11
7 8 9 8 8 10 15 15 18 15 14 15 17 17 19 17 17 16 16 14 14 14 13 16 20 15 13 12 12 13 11 18 17 24 24 19 17 17 14 13 12 12 13 13 12
8 11 9 8 9 12 16 16 17 14 13 16 17 18 17 18 17 17 16 14 13 14 13 15 18 16 14 16 15 14 16 14 14 16 22 23 19 14 13 13 13 12 12 13 12
8 16 8 8 15 17 17 17 13 15 13 15 15 16 16 16 17 17 17 15 13 13 16 14 16 21 18 15 12 13 14 14 19 19 17 19 20 11 12 12 12 12 11 12 12
12 11 8 9 16 17 17 15 14 15 14 15 15 14 14 17 19 17 16 14 13 14 15 14 18 23 18 16 14 16 13 13 14 15 18 21 18 11 12 13 11 12 12 12 12
12 16 13 12 12 16 17 17 17 13 13 14 15 14 15 18 16 18 16 14 14 13 12 13 20 22 21 18 16 19 17 14 16 22 19 18 17 15 16 16 14 13 13 13 13
13 15 15 16 16 14 14 16 16 17 14 13 15 15 16 20 20 19 16 15 14 12 14 15 22 24 22 18 17 18 19 18 18 16 21 19 20 14 14 14 15 14 13 14 13
15 15 14 15 14 15 14 16 16 15 15 16 16 14 15 17 17 19 17 16 16 14 15 15 21 22 25 22 19 20 18 19 20 18 17 15 16 12 11 13 15 16 14 14 14
11 11 11 14 14 15 16 15 15 14 14 13 14 14 16 15 15 14 14 14 14 16 17 17 19 24 26 24 25 22 20 18 17 16 17 20 16 11 13 11 13 13 13 14 12